Tracking 19575 objects as of 19-Feb-2019
HD Live streaming from Space Station
objects crossing your sky now

ATS 6

Track ATS 6 now!
ATS 6 is classified as:


NORAD ID: 7318
Int'l Code: 1974-039A
Perigee: 35,216.1 km
Apogee: 35,428.9 km
Inclination: 8.4 °
Period: 1,412.1 minutes
Semi major axis: 41693 km
RCS: 6.3095 m2 (large)
Launch date: May 30, 1974
Source: United States (US)
Launch site: AIR FORCE EASTERN TEST RANGE (AFETR)
aabbcc
Your satellite tracking list
Your tracking list is empty




NASA's NSSDC Master Catalog

Two Line Element Set (TLE):
1  7318U 74039A   19049.89079848 +.00000043 +00000-0 +00000-0 0  9995
2  7318 008.4001 300.0414 0025522 248.6817 088.1007 01.01976570094719
Source of the keplerian elements: AFSPC